Toms River, NJ

8:57 PM EDT on October 22, 2019 (GMT -0400)
Miller

Weather History for KMJX - August, 2019

Change the Weather History Date:

Sunday, August 4, 2019

  Actual Average Record
Temperature  
Mean Temperature 79 °F -  
Max Temperature 87 °F 87 °F 98 °F (1975)
Min Temperature 70 °F 65 °F 49 °F (1966)
Cooling Degree Days 14    
Growing Degree Days 29 (Base 50)    
Moisture  
Dew Point 70 °F    
Average Humidity 67    
Maximum Humidity 100    
Minimum Humidity 48    
Precipitation  
Precipitation 0.00 in - - ()
Sea Level Pressure  
Sea Level Pressure 29.93 in    
Wind  
Wind Speed 3 mph (South)    
Max Wind Speed 9 mph    
Max Gust Speed -    
Visibility 8 miles    
Events      
Averages and records for this station are not official NWS values.
T = Trace of Precipitation, MM = Missing Value Source: NWS Daily Summary

Daily Weather History Graph

Daily Weather History Graph

Search for Another Location

Airport or City:

Astronomy

Aug. 04, 2019 Rise Set
Actual Time 5:58 AM EDT 8:07 PM EDT
Civil Twilight 5:28 AM EDT 8:37 PM EDT
Nautical Twilight 4:51 AM EDT 9:14 PM EDT
Astronomical Twilight 4:11 AM EDT 9:54 PM EDT
Moon 10:00 AM EDT (8/4) 10:45 PM EDT (8/4)
Length of Visible Light 15h 09m
Length of Day
14h 09m
Waxing Crescent, 18% of the Moon is Illuminated
Aug 4
Waxing Crescent
Aug 7
First Quarter
Aug 15
Full
Aug 23
Last Quarter
Aug 30
New

Hourly Weather History & Observations

Time (EDT) Temp. Heat Index Dew Point Humidity Pressure Visibility Wind Dir Wind Speed Gust Speed Precip Events Conditions
12:56 AM - - - N/A% 29.96 in 10.0 mi Calm Calm - N/A   Clear
1:56 AM - - - N/A% 29.96 in 10.0 mi Calm Calm - N/A   Clear
2:36 AM - - - N/A% 29.94 in 2.5 mi Calm Calm - N/A   Scattered Clouds
2:41 AM - - - N/A% 29.93 in 1.2 mi Calm Calm - N/A   Mostly Cloudy
2:44 AM - - - N/A% 29.93 in 0.8 mi Calm Calm - N/A   Mostly Cloudy
2:52 AM - - - N/A% 29.93 in 1.2 mi WSW 3.5 mph - N/A   Mostly Cloudy
2:56 AM - - - N/A% 29.93 in 3.0 mi WSW 3.5 mph - N/A   Mostly Cloudy
3:04 AM - - - N/A% 29.93 in 9.0 mi WSW 4.6 mph - N/A   Scattered Clouds
3:56 AM - - - N/A% 29.92 in 10.0 mi WSW 4.6 mph - N/A   Clear
4:56 AM - - - N/A% - 10.0 mi Calm Calm - N/A   Clear
5:56 AM - - - N/A% 29.91 in 7.0 mi Calm Calm - N/A   Scattered Clouds
6:56 AM - - - N/A% 29.92 in 9.0 mi Calm Calm - N/A   Scattered Clouds
7:56 AM 73.9 °F - - N/A% 29.94 in 10.0 mi Calm Calm - N/A   Clear
8:56 AM 78.1 °F - 78.1 °F 100% 29.94 in 10.0 mi NNW 5.8 mph - N/A   Scattered Clouds
9:56 AM 80.1 °F 86.4 °F 78.1 °F 94% 29.94 in 10.0 mi North 9.2 mph - N/A   Mostly Cloudy
10:56 AM 82.9 °F 89.4 °F 73.9 °F 74% 29.93 in 10.0 mi NE 8.1 mph - N/A   Scattered Clouds
11:56 AM 84.0 °F 87.0 °F 68.0 °F 58% 29.93 in 10.0 mi North 6.9 mph - N/A   Mostly Cloudy
12:56 PM 86.0 °F 88.2 °F 66.0 °F 51% 29.92 in 10.0 mi East 5.8 mph - N/A   Partly Cloudy
1:56 PM 87.1 °F 88.9 °F 64.9 °F 48% 29.90 in 10.0 mi Variable 5.8 mph - N/A   Partly Cloudy
2:56 PM 86.0 °F 90.1 °F 69.1 °F 57% 29.90 in 10.0 mi ESE 9.2 mph - N/A   Overcast
3:56 PM 87.1 °F 89.9 °F 66.9 °F 51% 29.89 in 10.0 mi SSE 9.2 mph - N/A   Partly Cloudy
4:56 PM 87.1 °F 89.2 °F 66.0 °F 49% 29.90 in 10.0 mi SE 8.1 mph - N/A   Clear
5:56 PM 84.9 °F 87.6 °F 66.9 °F 55% 29.90 in 10.0 mi South 8.1 mph - N/A   Clear
6:56 PM 82.0 °F 84.9 °F 68.0 °F 62% 29.90 in 10.0 mi South 5.8 mph - N/A   Clear
7:56 PM 78.1 °F - 68.0 °F 71% 29.92 in 10.0 mi South 4.6 mph - N/A   Clear
8:56 PM 73.9 °F - 73.9 °F 100% 29.94 in 10.0 mi South 4.6 mph - N/A   Clear
9:56 PM 73.9 °F - - N/A% 29.94 in 10.0 mi Calm Calm - N/A   Clear
10:56 PM 71.1 °F - - N/A% 29.94 in 10.0 mi SW 3.5 mph - N/A   Clear
11:56 PM 70.0 °F - - N/A% 29.94 in 10.0 mi South 3.5 mph - N/A   Clear